Location: ??
(34.7252°N, 135.5457°E)
Time: 07:48:43
(UTC+00:00)

Cosmos 372 Rocket - Pass Details

Date: 24 September 2020
Orbit: 739 x 767 km, 74.1° (Epoch: 28 October)

Event Time Altitude Azimuth Distance (km) Brightness Sun altitude
Rises 20:04:09 0° 335° (NNW) 3,194 7.0 -9.8°
Reaches altitude 10° 20:06:36 10° 329° (NNW) 2,263 6.2 -9.3°
Maximum altitude 20:11:27 44° 258° (WSW) 1,013 4.2 -8.3°
Drops below altitude 10° 20:16:15 10° 187° (S) 2,239 6.3 -7.3°
Sets 20:18:40 0° 181° (S) 3,156 7.1 -6.9°
